Wind_Speed
15 16 16 16 17 16 16 17 17 17 17 18 18 18 18 18 17 16 16 16 15 16 16 17 17 16 17 16 16 17 17 17 18 18 18 18 18 18
16 16 17 18 17 17 17 18 18 19 19 19 20 20 19 19 18 18 17 17 16 17 17 17 17 17 17 17 17 17 18 18 19 19 19 19 19 20
18 18 18 18 18 18 19 19 20 21 21 20 21 21 20 19 19 19 18 17 17 17 18 18 18 18 18 19 19 19 18 19 20 20 20 20 21 21
20 19 19 19 19 20 20 21 22 22 22 22 22 22 22 20 19 19 19 19 19 19 19 19 19 19 19 19 19 19 19 19 20 21 21 21 21 20
20 20 20 20 20 21 22 22 23 24 24 23 23 23 23 22 21 21 20 20 20 20 21 20 20 21 20 21 21 20 20 20 20 20 21 22 22 22
21 21 21 22 22 23 24 24 24 25 25 25 25 25 24 24 24 23 22 22 21 21 21 22 22 23 22 22 22 22 22 22 22 21 21 22 22 22
22 23 23 24 24 24 25 25 26 26 27 27 27 27 26 26 25 25 24 23 23 23 23 23 23 23 23 23 23 23 23 23 23 23 23 23 23 23
24 24 25 25 25 26 26 27 27 28 29 29 29 29 28 28 27 27 26 25 24 24 24 24 23 23 24 24 24 24 24 24 24 24 24 24 24 24
26 26 27 27 27 28 28 29 30 30 30 31 30 29 29 29 29 28 27 26 26 25 25 24 24 24 24 24 25 25 25 25 25 25 24 25 24 24
27 28 28 29 29 29 30 30 31 31 31 31 30 29 29 29 28 28 28 28 27 26 26 25 25 25 24 24 24 25 25 25 25 26 25 25 25 25
29 29 29 30 30 30 31 31 31 31 30 29 29 28 27 27 28 28 28 27 26 26 26 26 25 25 24 24 24 25 24 24 25 26 27 26 26 26
30 30 31 31 31 31 32 32 32 31 30 29 28 28 28 28 28 28 27 27 27 26 25 26 26 27 26 25 26 26 26 26 27 27 27 27 27 27
32 32 32 32 32 32 33 33 32 31 30 29 29 29 29 29 29 28 28 28 28 27 27 27 27 27 27 27 27 27 27 27 27 27 27 28 28 28
33 33 33 34 34 34 34 34 33 32 31 31 30 30 29 29 30 29 28 28 28 28 28 29 29 28 28 28 28 27 27 27 27 27 27 28 28 29
34 34 34 35 35 36 36 35 34 33 32 31 31 31 31 30 29 29 29 29 29 29 29 30 30 30 29 28 28 27 27 27 27 27 27 28 29 29
35 36 36 36 36 36 35 35 34 33 32 32 31 31 31 30 29 29 29 29 30 29 29 30 30 30 30 29 28 28 27 27 27 28 28 28 29 29
35 36 35 35 35 34 34 33 33 33 33 33 32 32 31 31 31 30 29 30 30 29 29 30 30 30 30 29 28 29 29 28 28 29 28 28 28 29
34 34 34 34 34 33 32 32 31 32 33 33 32 31 31 30 30 30 30 30 30 30 30 30 30 30 30 29 29 29 29 29 29 29 29 28 27 28
33 32 32 32 31 30 30 30 30 30 31 31 31 31 31 30 30 30 30 30 31 30 30 30 30 30 30 29 29 30 30 30 30 30 29 28 28 28
31 30 30 29 29 29 30 29 29 30 31 31 30 30 30 30 30 31 31 31 31 30 30 30 30 30 30 31 31 31 31 31 31 30 29 30 30 30
30 30 29 29 29 29 29 29 30 30 30 29 30 30 29 30 31 31 31 32 32 32 31 30 31 31 32 31 31 31 31 31 31 31 31 31 31 31
30 30 29 29 29 30 30 30 30 30 30 29 30 30 30 31 31 32 32 32 32 31 31 31 32 32 32 31 31 31 31 32 33 33 32 31 31 31
30 29 29 30 30 30 30 30 30 30 30 31 31 30 30 31 31 32 32 32 31 31 32 32 32 32 33 32 32 31 31 31 31 32 32 32 32 32
Wind_Direction
309 308 309 312 314 314 313 313 313 312 312 312 312 311 311 306 299 294 293 292 291 288 286 285 285 285 282 281 278 276 271 268 266 265 266 266 268 268
308 308 307 309 310 311 310 309 310 310 310 310 309 309 309 303 299 294 292 289 288 288 286 285 283 282 281 279 278 275 272 268 268 268 268 267 268 268
308 309 308 307 307 307 307 306 308 308 308 310 310 309 306 302 298 294 290 290 289 287 286 284 283 282 282 279 278 273 271 271 269 268 269 270 270 269
306 305 305 305 305 305 305 306 307 308 308 308 307 308 306 301 296 293 291 289 288 287 287 284 282 280 281 281 280 276 272 270 269 268 269 271 271 269
305 302 302 302 303 304 304 304 305 305 305 305 305 304 301 297 293 291 289 289 288 286 285 283 282 281 280 280 280 278 276 274 272 272 271 270 269 270
305 304 303 303 303 302 302 302 302 302 303 303 303 301 298 296 293 290 289 289 289 289 286 283 282 280 278 278 279 278 277 275 275 273 273 273 271 269
303 304 304 305 303 302 301 301 301 301 301 301 301 299 296 295 294 292 289 288 289 290 286 283 282 281 279 278 278 279 277 274 273 274 273 274 273 270
302 302 303 303 302 301 301 301 301 301 301 301 299 296 294 292 289 291 288 286 288 289 288 285 281 280 279 279 279 279 278 276 275 274 273 273 273 272
301 301 302 301 300 299 300 300 301 301 300 300 297 294 292 291 289 288 287 285 287 287 287 286 284 282 281 280 279 279 278 276 274 273 273 273 272 273
301 301 301 301 300 299 297 297 298 298 300 300 298 295 293 290 288 289 287 286 285 286 288 287 286 284 282 283 281 280 278 275 273 273 271 273 273 274
299 300 301 301 300 298 297 297 297 297 297 298 299 296 294 293 292 289 287 286 286 286 285 286 286 285 285 285 282 279 277 275 273 273 270 271 271 272
297 297 298 298 299 297 297 297 296 296 295 295 297 296 294 292 292 288 286 286 286 287 287 286 286 285 285 285 285 281 278 276 275 272 271 271 271 270
296 295 296 296 297 297 298 297 296 295 294 293 294 296 294 291 289 287 285 285 286 286 287 288 287 286 286 284 283 282 279 278 276 273 270 271 271 270
296 295 296 295 295 296 296 296 295 294 293 293 293 295 294 291 288 286 284 284 285 285 285 286 287 286 284 285 283 281 280 279 278 275 272 271 271 271
297 296 295 295 295 294 293 292 291 291 292 292 292 293 292 292 289 286 285 285 286 287 285 285 286 287 286 285 284 282 281 279 279 278 275 273 272 271
297 296 295 294 293 293 292 290 289 289 290 290 290 290 291 290 288 287 286 285 286 287 287 287 285 285 287 286 284 281 281 280 279 279 278 276 272 270
297 297 296 295 294 293 292 291 290 289 289 289 288 289 289 288 287 285 285 284 284 284 284 285 285 285 286 285 282 281 280 280 281 280 278 277 274 271
299 300 298 296 294 292 291 290 288 288 288 288 289 289 288 287 284 283 284 286 286 284 284 284 284 284 284 282 281 280 280 281 281 281 281 280 278 275
300 300 299 297 295 294 294 291 290 289 289 290 290 288 286 283 283 283 285 286 285 285 284 283 284 284 283 281 281 281 282 281 280 279 279 280 280 279
301 300 300 300 299 298 297 296 294 294 293 291 290 286 284 283 283 282 283 285 284 284 284 284 284 284 283 281 280 280 282 281 280 279 279 279 280 280
301 301 301 300 299 298 299 298 297 296 295 293 291 288 286 285 285 285 285 285 284 285 285 285 283 284 283 282 282 281 281 279 279 279 279 279 279 280
301 301 301 301 300 299 299 298 297 297 296 294 292 290 288 288 287 287 286 285 284 284 284 282 282 283 282 281 282 281 281 279 279 279 279 279 279 279
301 302 301 302 301 300 298 297 297 297 297 297 296 294 292 290 288 287 286 285 286 285 283 282 281 282 283 283 284 283 282 280 279 278 279 279 279 279
Height
5867 5866 5865 5864 5862 5860 5859 5858 5857 5855 5854 5852 5850 5847 5846 5844 5842 5841 5841 5841 5840 5840 5839 5839 5839 5838 5838 5837 5837 5837 5837 5837 5837 5838 5838 5839 5839 5839
5864 5863 5862 5860 5859 5857 5856 5854 5853 5851 5849 5847 5845 5843 5841 5840 5838 5837 5836 5836 5835 5835 5835 5834 5834 5833 5833 5832 5832 5832 5832 5832 5832 5832 5833 5833 5833 5834
5860 5859 5858 5856 5855 5853 5852 5850 5848 5846 5845 5843 5841 5839 5836 5835 5834 5833 5832 5831 5830 5830 5829 5829 5828 5828 5828 5827 5826 5826 5826 5826 5827 5827 5827 5827 5828 5828
5856 5855 5853 5852 5850 5849 5847 5846 5844 5842 5840 5838 5836 5834 5831 5829 5828 5828 5827 5826 5825 5825 5824 5824 5823 5823 5822 5822 5821 5821 5820 5820 5820 5821 5821 5821 5821 5821
5852 5850 5849 5847 5846 5844 5842 5841 5839 5837 5835 5832 5831 5829 5826 5824 5823 5822 5821 5821 5820 5819 5819 5818 5818 5817 5816 5816 5815 5815 5814 5814 5814 5814 5814 5814 5815 5815
5847 5846 5844 5842 5840 5838 5837 5835 5833 5831 5829 5827 5825 5823 5820 5818 5817 5816 5816 5814 5814 5813 5812 5812 5811 5811 5810 5810 5809 5809 5808 5808 5808 5808 5808 5808 5808 5808
5842 5841 5839 5837 5835 5833 5831 5829 5827 5825 5823 5821 5818 5816 5814 5812 5811 5810 5809 5808 5807 5806 5805 5805 5804 5803 5803 5802 5802 5802 5801 5801 5801 5801 5801 5801 5801 5801
5837 5835 5833 5831 5829 5827 5825 5823 5821 5818 5816 5813 5811 5809 5807 5805 5804 5802 5801 5801 5801 5800 5798 5798 5797 5796 5796 5795 5794 5794 5794 5793 5793 5793 5793 5793 5793 5793
5831 5829 5827 5825 5823 5820 5818 5816 5813 5811 5808 5806 5803 5801 5800 5798 5796 5795 5794 5793 5792 5791 5790 5790 5789 5788 5787 5787 5786 5786 5786 5785 5785 5785 5785 5785 5785 5785
5824 5822 5820 5818 5815 5813 5811 5809 5806 5804 5801 5798 5796 5794 5792 5790 5788 5787 5786 5785 5785 5784 5783 5782 5781 5780 5779 5779 5778 5778 5777 5777 5777 5777 5777 5777 5777 5777
5818 5815 5813 5810 5808 5806 5803 5801 5798 5796 5793 5791 5788 5786 5784 5782 5780 5779 5778 5777 5777 5776 5775 5774 5774 5773 5772 5771 5770 5769 5768 5768 5768 5768 5768 5768 5768 5768
5810 5808 5805 5803 5800 5797 5795 5792 5790 5788 5785 5783 5781 5779 5776 5774 5773 5771 5770 5770 5769 5768 5767 5766 5765 5765 5764 5763 5761 5760 5759 5759 5759 5758 5758 5759 5759 5759
5802 5799 5797 5794 5791 5789 5786 5784 5781 5779 5777 5775 5773 5771 5769 5767 5765 5764 5762 5761 5761 5760 5760 5758 5757 5756 5755 5755 5753 5752 5751 5750 5749 5749 5748 5749 5749 5749
5793 5790 5787 5785 5782 5779 5777 5775 5772 5770 5768 5766 5764 5762 5761 5759 5757 5756 5754 5753 5752 5751 5751 5749 5748 5747 5746 5745 5745 5744 5742 5741 5740 5739 5739 5739 5739 5739
5783 5781 5778 5775 5772 5770 5767 5765 5762 5760 5758 5757 5755 5754 5752 5750 5748 5747 5746 5744 5743 5742 5742 5740 5739 5738 5736 5736 5735 5734 5733 5732 5731 5730 5729 5729 5729 5729
5773 5771 5768 5765 5763 5760 5757 5755 5753 5751 5749 5747 5746 5744 5743 5741 5739 5738 5737 5736 5735 5734 5733 5731 5730 5729 5727 5726 5725 5724 5723 5722 5722 5721 5720 5719 5719 5719
5763 5760 5758 5755 5753 5749 5747 5745 5743 5741 5739 5737 5736 5735 5733 5732 5730 5729 5728 5727 5726 5725 5724 5722 5721 5719 5718 5717 5715 5714 5714 5713 5712 5711 5710 5709 5709 5708
5753 5750 5748 5745 5742 5740 5737 5735 5733 5731 5730 5728 5726 5725 5723 5722 5720 5719 5718 5717 5716 5715 5714 5713 5711 5710 5709 5707 5706 5705 5704 5703 5702 5701 5700 5699 5699 5698
5744 5741 5738 5736 5733 5731 5728 5726 5724 5722 5720 5718 5716 5715 5713 5712 5710 5709 5708 5707 5706 5705 5704 5703 5701 5700 5699 5698 5697 5695 5694 5693 5692 5691 5690 5689 5688 5688
5736 5733 5730 5727 5725 5722 5720 5718 5716 5713 5711 5708 5707 5705 5704 5702 5701 5700 5698 5697 5696 5695 5694 5693 5691 5690 5689 5688 5687 5686 5684 5683 5682 5681 5680 5679 5678 5678
5728 5725 5722 5720 5717 5714 5712 5709 5707 5705 5703 5700 5698 5696 5695 5693 5692 5690 5689 5688 5686 5685 5684 5683 5681 5680 5678 5677 5677 5676 5675 5673 5671 5670 5669 5669 5668 5667
5720 5717 5714 5712 5709 5706 5704 5701 5699 5696 5694 5692 5690 5688 5686 5684 5682 5680 5679 5677 5676 5675 5674 5672 5671 5669 5667 5666 5665 5664 5664 5663 5661 5660 5658 5658 5657 5657
5712 5709 5707 5704 5701 5698 5696 5693 5691 5688 5686 5684 5681 5678 5676 5674 5672 5670 5668 5666 5665 5664 5663 5661 5659 5658 5656 5655 5654 5653 5652 5651 5650 5649 5648 5647 5646 5646